Location: StarGlider Observatory
(40.6275°N, 79.9767°W)
Time: 12:47:58

N. Korean satellite - Visible Passes

Search period start: 19 March 2018 00:00
Search period end: 29 March 2018 00:00
Orbit: 460 x 512 km, 97.2° (Epoch: 18 March)

Date Brightness Start Highest point End Pass type
(mag) Time Alt. Az. Time Alt. Az. Time Alt. Az.
19 Mar 10.5 20:26:33 10° WSW 20:27:25 11° W 20:28:16 10° WNW visible
20 Mar 9.7 20:00:35 10° SW 20:03:24 21° W 20:06:15 10° NW visible
23 Mar 10.4 20:24:23 10° WSW 20:25:35 11° W 20:26:48 10° WNW visible
24 Mar 9.7 19:58:39 10° SSW 20:01:34 22° W 20:04:31 10° NW visible
27 Mar 10.3 20:22:14 10° WSW 20:23:42 12° W 20:25:11 10° WNW visible
